sat.trackr.live / text

‹ back to catalog

COSMOS 2524

NORAD 43032 · 2017-076A

PAYLOAD ACTIVE UNKNOWN

§ Identity

Operator
Country
CIS
Launch date
2017-12-02
Launch site
PLMSC
Launch vehicle
Mass (kg)
RCS (m²)

External: N2YO · Heavens-Above · Gunter

§ Orbital elements

Epoch: 2026-09-20T05:14:56.090400Z

Period
103.05 min
Inclination
67.1477°
Eccentricity
0.0002441
Mean motion
13.97437698 rev/d
Perigee alt
900.9 km
Apogee alt
904.5 km
Semi-major
7,280.8 km
B*
1.5351e-4
RAAN
321.2045°
Arg perigee
300.1685°
Mean anomaly
59.9158°
Rev number
44,888

§ Raw data

COSMOS 25241 43032U 17076A   26263.21870475  .00000141  00000+0  15351-3 0  99992 43032  67.1477 321.2045 0002441 300.1685  59.9158 13.97437698448883

JSON: /api/v1/satellites/43032 · /tle

For live sub-satellite position, see the globe view (requires WebGL).

§ Visibility from observer

Set your observer location to see the next 7 days of passes ≥ 10°. The values pass through the URL so the page stays shareable.

No JS? Fill the form by hand. The geolocation button needs JavaScript.